Regional Weather Roundup
Issued by NWS

Home | Current Version | Previous Version | Graphics & Text | Print | Product List | Glossary On
Versions: 1 2 3 4 5 6 7 8 9 10 11 12 13 14 15 16 17 18 19 20 21 22 23 24 25 26 27 28 29 30 31 32 33 34 35 36 37 38 39 40 41 42 43 44 45 46 47 48 49 50
000
ASUS43 KIND 300009
RWRIN

WEATHER ROUNDUP FOR INDIANA
NATIONAL WEATHER SERVICE INDIANAPOLIS IN
800 PM EDT TUE JUL 29 2014

NOTE: "FAIR" INDICATES FEW OR NO CLOUDS BELOW 12,000 FEET WITH NO
SIGNIFICANT WEATHER AND/OR OBSTRUCTIONS TO VISIBILITY.

* - STATION DOES NOT REPORT WEATHER SUCH AS PRECIPITATION OR FOG.

+ - STATION NOT QUALITY CONTROLLED BY THE NATIONAL WEATHER SERVICE.
    USE DATA WITH CAUTION...ESPECIALLY DEWPOINT AND RELATIVE
    HUMIDITY OBSERVATIONS.

INZ001>003-010>013-019-020-300100-
NORTHWEST INDIANA

CITY           SKY/WX    TMP DP  RH WIND       PRES   REMARKS
GARY /AIRPORT/ MOSUNNY   75  57  53 W8        30.01R
KNOX *+        SUNNY     71  57  60 N5        30.00R
LA PORTE +     SUNNY     70  54  56 CALM      30.01S
6HR MIN TEMP:  70; 6HR MAX TEMP:  74;

MICHIGAN CITY+ SUNNY     70  52  52 CALM      30.01R
MONTICELLO +   PTSUNNY   67  61  81 CALM      30.01S
RENSSELAER +   LGT RAIN  66  63  88 W3        30.03R
VALPARAISO     SUNNY     71  56  58 CALM      30.01R
6HR MIN TEMP:  71; 6HR MAX TEMP:  78;


$$

LMZ046-743>745-300100-
SOUTHERN LAKE MICHIGAN

STATION/POSITION TIME  TEMP WIND        PRES
                       AIR  DIR/SP/G
                 (UTC) (F)  (DEG/KT/KT) (MB)
MICHIGAN CITY    0000   69   30/  3/  3   N/A

$$

INZ004-005-014>016-021>024-300100-
NORTH CENTRAL INDIANA

CITY           SKY/WX    TMP DP  RH WIND       PRES   REMARKS
GOSHEN         SUNNY     71  54  54 NW7       29.99F
6HR MIN TEMP:  71; 6HR MAX TEMP:  76; 6HR PCP: TRACE;

LOGANSPORT +   RAIN      64  59  82 W5        30.03R
PERU/GRISSOM   PTSUNNY   65  64  97 SW9       30.02S
6HR MIN TEMP:  65; 6HR MAX TEMP:  76; 6HR PCP:  0.06;

ROCHESTER +    MOSUNNY   73  52  46 W5        30.02R
SOUTH BEND     SUNNY     72  54  53 N9        30.00S
6HR MIN TEMP:  72; 6HR MAX TEMP:  76;

WARSAW +       SUNNY     70  54  56 NW7       30.00S

$$

INZ006>009-017-018-025>027-300100-
NORTHEAST INDIANA

CITY           SKY/WX    TMP DP  RH WIND       PRES   REMARKS
ANGOLA *+      CLEAR     70  61  73 CALM      29.99S
AUBURN +       CLEAR     70  57  64 SW3       30.00S
FORT WAYNE     PTCLDY    69  60  73 S6        30.01F
6HR MIN TEMP:  66; 6HR MAX TEMP:  75; 6HR PCP: TRACE;

HUNTINGTON +   PTCLDY    68  60  75 SW5       30.00S
6HR MIN TEMP:  68; 6HR MAX TEMP:  74;


$$

INZ028-029-035-036-043>045-051>053-300100-
WEST CENTRAL INDIANA

CITY           SKY/WX    TMP DP  RH WIND       PRES   REMARKS
GREENCASTLE +  SUNNY     70  59  68 CALM      30.05S
LAFAYETTE      CLOUDY    65  63  93 CALM      30.02F
6HR MIN TEMP:  63; 6HR MAX TEMP:  78; 6HR PCP:  0.40;

TERRE HAUTE    SUNNY     74  55  51 W8        30.04F
6HR MIN TEMP:  72; 6HR MAX TEMP:  77;


$$

INZ030>032-037>040-046>048-054>057-064-065-300100-
CENTRAL INDIANA

CITY           SKY/WX    TMP DP  RH WIND       PRES   REMARKS
CP ATTERBURY + PTCLDY    70  57  64 CALM      30.05S
COLUMBUS       CLEAR     70  57  64 CALM      30.05S
GREENWOOD *+   CLOUDY    72  63  73 W5        30.05S
INDIANAPOLIS   PTSUNNY   63  59  87 N21       30.05R THUNDER
6HR MIN TEMP:  64; 6HR MAX TEMP:  75; 6HR PCP:  0.01;

-EAGLE CREEK   TSTM      63  59  87 NE7       30.06R
6HR MIN TEMP:  62; 6HR MAX TEMP:  75; 6HR PCP:  0.25;

KOKOMO *+      MOSUNNY   66  59  77 SW8       30.03R
MARION +       CLEAR     65  60  82 SW7       30.03S
MT COMFORT *+  CLOUDY    63 N/A N/A NE5G17    30.06R VSB 3/4
SHELBYVILLE    MOCLDY    70  59  68 W6        30.04S
6HR MIN TEMP:  70; 6HR MAX TEMP:  76; 6HR PCP: TRACE;

ZIONSVILLE +   MOSUNNY   64  59  84 S3        30.06S
6HR MIN TEMP:  64; 6HR MAX TEMP:  75; 6HR PCP:  0.03;


$$

INZ033-034-041-042-049-050-058-059-300100-
EAST CENTRAL INDIANA

CITY           SKY/WX    TMP DP  RH WIND       PRES   REMARKS
MUNCIE         CLOUDY    66  58  75 W7        30.03S
6HR MIN TEMP:  65; 6HR MAX TEMP:  74; 6HR PCP:  0.01;


$$

INZ060-061-067>069-081>083-085>088-300100-
SOUTHWEST INDIANA

CITY           SKY/WX    TMP DP  RH WIND       PRES   REMARKS
EVANSVILLE     SUNNY     76  54  46 NW6       30.07F
6HR MIN TEMP:  76; 6HR MAX TEMP:  80;

WASHINGTON +   SUNNY     72  60  64 W3        30.05S
6HR MIN TEMP:  72; 6HR MAX TEMP:  75;


$$

INZ062-063-066-070>080-084-089>092-300100-
SOUTH CENTRAL AND SOUTHEAST INDIANA

CITY           SKY/WX    TMP DP  RH WIND       PRES   REMARKS
BLOOMINGTON    SUNNY     71  60  68 W5        30.05F
6HR MIN TEMP:  70; 6HR MAX TEMP:  76;

SEYMOUR +      MOCLDY    70  43  37 W5        30.04

$$



USA.gov is the U.S. government's official web portal to all federal, state and local government web resources and services.